When you browse on this site, cookies collect data to enhance your experience and personalize the content and advertising you see.
Visit our Privacy Policy to learn more. By continuing to use the site, you agree to this use of cookies and data.
  • In Österreich
  • Länderverzeichnis
  • Für 7 Tage
  • Wassertemperatur
  • Wetterkarte
  • News
  • Widgets
  • user-avatar
    Anmelden

    Stündliche Wetter Vetchin

    Heute, 19 September, Donnerstag

    Zeit Temperatur Niederschläge Wind Luftdruck Luftfeuchtigkeit
    00:00 +6°C° 0 mm 4 m/S 746 mmHg 91%
    01:00 +6°C° 0 mm 4 m/S 746 mmHg 92%
    02:00 +5°C° 0 mm 3 m/S 746 mmHg 94%
    03:00 +6°C° 0 mm 4 m/S 747 mmHg 92%
    04:00 +6°C° 0 mm 4 m/S 747 mmHg 91%
    05:00 +6°C° 0 mm 4 m/S 747 mmHg 89%
    06:00 +7°C° 0 mm 4 m/S 747 mmHg 87%
    07:00 +7°C° 0 mm 4 m/S 748 mmHg 85%
    08:00 +7°C° 0 mm 4 m/S 748 mmHg 84%
    09:00 +8°C° 0 mm 4 m/S 748 mmHg 82%
    10:00 +8°C° 0 mm 4 m/S 749 mmHg 80%
    11:00 +8°C° 0 mm 4 m/S 749 mmHg 78%
    12:00 +10°C° 0.2 mm 4 m/S 749 mmHg 76%
    13:00 +11°C° 0.2 mm 4 m/S 749 mmHg 74%
    14:00 +11°C° 0.2 mm 4 m/S 749 mmHg 71%
    15:00 +11°C° 0.1 mm 3 m/S 749 mmHg 72%
    16:00 +11°C° 0.1 mm 3 m/S 749 mmHg 73%
    17:00 +10°C° 0.1 mm 3 m/S 749 mmHg 73%
    18:00 +9°C° 0 mm 2 m/S 749 mmHg 78%
    19:00 +8°C° 0 mm 2 m/S 749 mmHg 83%
    20:00 +6°C° 0 mm 2 m/S 750 mmHg 88%
    21:00 +6°C° 0 mm 2 m/S 750 mmHg 88%
    22:00 +6°C° 0 mm 2 m/S 749 mmHg 89%
    23:00 +6°C° 0 mm 2 m/S 749 mmHg 89%

    Morgen, 20 September, Freitag

    Zeit Temperatur Niederschläge Wind Luftdruck Luftfeuchtigkeit
    00:00 +5°C° 0 mm 2 m/S 749 mmHg 91%
    01:00 +5°C° 0 mm 2 m/S 749 mmHg 92%
    02:00 +5°C° 0 mm 2 m/S 749 mmHg 94%
    03:00 +4°C° 0 mm 3 m/S 749 mmHg 95%
    04:00 +4°C° 0 mm 3 m/S 749 mmHg 95%
    05:00 +4°C° 0 mm 3 m/S 749 mmHg 96%
    06:00 +5°C° 0 mm 4 m/S 749 mmHg 91%
    07:00 +6°C° 0 mm 4 m/S 749 mmHg 86%
    08:00 +6°C° 0 mm 5 m/S 749 mmHg 82%
    09:00 +7°C° 0 mm 5 m/S 750 mmHg 77%
    10:00 +7°C° 0 mm 5 m/S 750 mmHg 73%
    11:00 +8°C° 0 mm 5 m/S 750 mmHg 69%
    12:00 +8°C° 0.1 mm 5 m/S 750 mmHg 71%
    13:00 +7°C° 0.1 mm 5 m/S 750 mmHg 73%
    14:00 +7°C° 0.1 mm 5 m/S 750 mmHg 75%
    15:00 +7°C° 0.1 mm 4 m/S 750 mmHg 73%
    16:00 +8°C° 0.1 mm 4 m/S 751 mmHg 71%
    17:00 +8°C° 0.1 mm 4 m/S 751 mmHg 69%
    18:00 +8°C° 0 mm 3 m/S 751 mmHg 73%
    19:00 +5°C° 0 mm 3 m/S 752 mmHg 78%
    20:00 +5°C° 0 mm 2 m/S 752 mmHg 82%
    21:00 +4°C° 0 mm 2 m/S 752 mmHg 83%
    22:00 +4°C° 0 mm 2 m/S 752 mmHg 84%
    23:00 +3°C° 0 mm 2 m/S 753 mmHg 85%

    übermorgen, 21 September, Samstag

    Zeit Temperatur Niederschläge Wind Luftdruck Luftfeuchtigkeit
    00:00 +3°C° 0 mm 2 m/S 753 mmHg 85%
    01:00 +3°C° 0 mm 2 m/S 753 mmHg 84%
    02:00 +2°C° 0 mm 2 m/S 753 mmHg 83%
    03:00 +2°C° 0 mm 2 m/S 753 mmHg 83%
    04:00 +2°C° 0 mm 2 m/S 753 mmHg 83%
    05:00 +3°C° 0 mm 2 m/S 753 mmHg 84%
    06:00 +4°C° 0 mm 2 m/S 752 mmHg 79%
    07:00 +4°C° 0 mm 3 m/S 752 mmHg 75%
    08:00 +5°C° 0 mm 3 m/S 752 mmHg 71%
    09:00 +5°C° 0.3 mm 4 m/S 751 mmHg 77%
    10:00 +5°C° 0.3 mm 5 m/S 751 mmHg 83%
    11:00 +5°C° 0.3 mm 5 m/S 750 mmHg 89%
    12:00 +6°C° 0.5 mm 5 m/S 750 mmHg 90%
    13:00 +7°C° 0.5 mm 5 m/S 749 mmHg 92%
    14:00 +7°C° 0.5 mm 5 m/S 749 mmHg 93%
    15:00 +8°C° 0.1 mm 5 m/S 749 mmHg 92%
    16:00 +9°C° 0.1 mm 5 m/S 749 mmHg 92%
    17:00 +10°C° 0.1 mm 5 m/S 748 mmHg 91%
    18:00 +10°C° 0 mm 5 m/S 748 mmHg 91%
    19:00 +10°C° 0 mm 5 m/S 749 mmHg 91%
    20:00 +10°C° 0 mm 5 m/S 749 mmHg 91%
    21:00 +10°C° 0 mm 5 m/S 748 mmHg 91%
    22:00 +9°C° 0 mm 5 m/S 748 mmHg 92%
    23:00 +9°C° 0 mm 5 m/S 748 mmHg 93%

    22 September, Sonntag

    Zeit Temperatur Niederschläge Wind Luftdruck Luftfeuchtigkeit
    00:00 +9°C° 0 mm 5 m/S 748 mmHg 93%
    01:00 +9°C° 0 mm 5 m/S 748 mmHg 93%
    02:00 +9°C° 0 mm 5 m/S 748 mmHg 93%
    03:00 +9°C° 0 mm 5 m/S 748 mmHg 92%
    04:00 +9°C° 0 mm 5 m/S 748 mmHg 92%
    05:00 +10°C° 0 mm 4 m/S 748 mmHg 92%
    06:00 +9°C° 0 mm 5 m/S 748 mmHg 91%
    07:00 +10°C° 0 mm 5 m/S 748 mmHg 90%
    08:00 +10°C° 0 mm 5 m/S 748 mmHg 88%
    09:00 +12°C° 0 mm 5 m/S 749 mmHg 81%
    10:00 +14°C° 0 mm 5 m/S 749 mmHg 74%
    11:00 +15°C° 0 mm 5 m/S 749 mmHg 67%
    12:00 +15°C° 0 mm 5 m/S 749 mmHg 68%
    13:00 +15°C° 0 mm 5 m/S 749 mmHg 68%
    14:00 +15°C° 0 mm 4 m/S 749 mmHg 68%
    15:00 +14°C° 0 mm 4 m/S 749 mmHg 69%
    16:00 +14°C° 0 mm 3 m/S 750 mmHg 70%
    17:00 +14°C° 0 mm 2 m/S 750 mmHg 72%
    18:00 +13°C° 0 mm 2 m/S 750 mmHg 70%
    19:00 +12°C° 0 mm 2 m/S 750 mmHg 68%
    20:00 +9°C° 0 mm 2 m/S 751 mmHg 66%
    21:00 +9°C° 0 mm 2 m/S 751 mmHg 63%
    22:00 +8°C° 0 mm 2 m/S 751 mmHg 61%
    23:00 +7°C° 0 mm 2 m/S 751 mmHg 59%

    23 September, Montag

    Zeit Temperatur Niederschläge Wind Luftdruck Luftfeuchtigkeit
    00:00 +7°C° 0 mm 2 m/S 751 mmHg 59%
    01:00 +7°C° 0 mm 2 m/S 751 mmHg 60%
    02:00 +6°C° 0 mm 2 m/S 751 mmHg 61%
    03:00 +7°C° 0 mm 2 m/S 751 mmHg 61%
    04:00 +7°C° 0 mm 3 m/S 751 mmHg 61%
    05:00 +7°C° 0 mm 3 m/S 751 mmHg 62%
    06:00 +7°C° 0 mm 3 m/S 750 mmHg 61%
    07:00 +8°C° 0 mm 3 m/S 750 mmHg 61%
    08:00 +7°C° 0 mm 4 m/S 750 mmHg 61%
    09:00 +8°C° 0 mm 4 m/S 750 mmHg 59%
    10:00 +10°C° 0 mm 4 m/S 749 mmHg 58%
    11:00 +12°C° 0 mm 4 m/S 749 mmHg 56%
    12:00 +13°C° 0 mm 4 m/S 748 mmHg 55%
    13:00 +14°C° 0 mm 5 m/S 747 mmHg 54%
    14:00 +15°C° 0 mm 5 m/S 747 mmHg 53%
    15:00 +14°C° 0 mm 5 m/S 746 mmHg 56%
    16:00 +14°C° 0 mm 4 m/S 746 mmHg 58%
    17:00 +13°C° 0 mm 4 m/S 745 mmHg 60%
    18:00 +12°C° 0 mm 4 m/S 745 mmHg 63%
    19:00 +11°C° 0 mm 4 m/S 744 mmHg 65%
    20:00 +8°C° 0 mm 4 m/S 744 mmHg 67%
    21:00 +8°C° 0 mm 4 m/S 744 mmHg 70%
    22:00 +8°C° 0 mm 3 m/S 744 mmHg 72%
    23:00 +7°C° 0 mm 3 m/S 743 mmHg 75%

    24 September, Dienstag

    Zeit Temperatur Niederschläge Wind Luftdruck Luftfeuchtigkeit
    00:00 +7°C° 0 mm 2 m/S 743 mmHg 79%
    01:00 +7°C° 0 mm 2 m/S 742 mmHg 82%
    02:00 +7°C° 0 mm 2 m/S 742 mmHg 86%
    03:00 +8°C° 0 mm 1 m/S 742 mmHg 88%
    04:00 +8°C° 0 mm 1 m/S 741 mmHg 90%
    05:00 +8°C° 0 mm 1 m/S 741 mmHg 92%
    06:00 +9°C° 0 mm 1 m/S 741 mmHg 88%
    07:00 +9°C° 0 mm 1 m/S 741 mmHg 85%
    08:00 +10°C° 0 mm 1 m/S 741 mmHg 81%
    09:00 +12°C° 0 mm 1 m/S 741 mmHg 75%
    10:00 +14°C° 0 mm 1 m/S 741 mmHg 69%
    11:00 +16°C° 0 mm 1 m/S 741 mmHg 63%
    12:00 +16°C° 0 mm 2 m/S 741 mmHg 62%
    13:00 +17°C° 0 mm 3 m/S 741 mmHg 60%
    14:00 +17°C° 0 mm 4 m/S 741 mmHg 59%
    15:00 +14°C° 0 mm 4 m/S 742 mmHg 63%
    16:00 +12°C° 0 mm 4 m/S 742 mmHg 67%
    17:00 +10°C° 0 mm 5 m/S 742 mmHg 71%
    18:00 +8°C° 0 mm 4 m/S 743 mmHg 75%
    19:00 +7°C° 0 mm 4 m/S 743 mmHg 79%
    20:00 +6°C° 0 mm 4 m/S 743 mmHg 82%
    21:00 +5°C° 0 mm 4 m/S 744 mmHg 84%
    22:00 +4°C° 0 mm 3 m/S 744 mmHg 85%
    23:00 +4°C° 0 mm 3 m/S 744 mmHg 86%
    Mehr zeigen